When you browse on this site, cookies collect data to enhance your experience and personalize the content and advertising you see.
Visit our Privacy Policy to learn more. By continuing to use the site, you agree to this use of cookies and data.
  • In Portugal
  • List of Countries
  • For 7 days
  • Water Temperature
  • Satellite Maps
  • Weather Map
  • Weather Widgets
  • user-avatar
    Login

    Hourly Weather Castlebar

    Today, 16 July, Tuesday

    Time Temperature Precipitation Wind Pressure Humidity
    00:00 +14°C° 0 mm 1 mps 759 mmHg 93%
    01:00 +14°C° 0 mm 1 mps 759 mmHg 94%
    02:00 +13°C° 0 mm 1 mps 759 mmHg 95%
    03:00 +14°C° 0 mm 1 mps 759 mmHg 94%
    04:00 +14°C° 0 mm 1 mps 759 mmHg 93%
    05:00 +14°C° 0 mm 1 mps 759 mmHg 93%
    06:00 +16°C° 0 mm 2 mps 759 mmHg 86%
    07:00 +17°C° 0 mm 2 mps 759 mmHg 80%
    08:00 +19°C° 0 mm 3 mps 759 mmHg 73%
    09:00 +19°C° 0 mm 3 mps 759 mmHg 70%
    10:00 +20°C° 0 mm 4 mps 758 mmHg 68%
    11:00 +20°C° 0 mm 4 mps 758 mmHg 65%
    12:00 +20°C° 0.1 mm 4 mps 758 mmHg 67%
    13:00 +20°C° 0.1 mm 5 mps 758 mmHg 69%
    14:00 +20°C° 0.1 mm 5 mps 758 mmHg 70%
    15:00 +19°C° 0.1 mm 5 mps 757 mmHg 71%
    16:00 +19°C° 0.1 mm 5 mps 757 mmHg 73%
    17:00 +18°C° 0.1 mm 4 mps 757 mmHg 74%
    18:00 +17°C° 0 mm 4 mps 757 mmHg 79%
    19:00 +16°C° 0 mm 3 mps 757 mmHg 84%
    20:00 +15°C° 0 mm 2 mps 757 mmHg 90%
    21:00 +14°C° 0 mm 3 mps 756 mmHg 90%
    22:00 +14°C° 0 mm 3 mps 756 mmHg 91%
    23:00 +14°C° 0 mm 3 mps 756 mmHg 92%

    Tomorrow, 17 July, Wednesday

    Time Temperature Precipitation Wind Pressure Humidity
    00:00 +14°C° 0 mm 3 mps 755 mmHg 90%
    01:00 +14°C° 0 mm 3 mps 754 mmHg 89%
    02:00 +14°C° 0 mm 3 mps 754 mmHg 88%
    03:00 +14°C° 0.6 mm 4 mps 753 mmHg 90%
    04:00 +14°C° 0.6 mm 4 mps 753 mmHg 92%
    05:00 +14°C° 0.6 mm 5 mps 752 mmHg 95%
    06:00 +15°C° 1.3 mm 5 mps 752 mmHg 95%
    07:00 +15°C° 1.3 mm 5 mps 752 mmHg 95%
    08:00 +15°C° 1.3 mm 5 mps 752 mmHg 95%
    09:00 +15°C° 0.7 mm 5 mps 752 mmHg 96%
    10:00 +16°C° 0.7 mm 5 mps 751 mmHg 96%
    11:00 +17°C° 0.7 mm 4 mps 751 mmHg 96%
    12:00 +17°C° 0.5 mm 4 mps 751 mmHg 95%
    13:00 +17°C° 0.5 mm 4 mps 751 mmHg 93%
    14:00 +17°C° 0.5 mm 3 mps 751 mmHg 92%
    15:00 +17°C° 0.1 mm 4 mps 751 mmHg 87%
    16:00 +17°C° 0.1 mm 4 mps 752 mmHg 83%
    17:00 +17°C° 0.1 mm 4 mps 752 mmHg 79%
    18:00 +14°C° 0 mm 4 mps 752 mmHg 82%
    19:00 +13°C° 0 mm 3 mps 752 mmHg 85%
    20:00 +13°C° 0 mm 2 mps 753 mmHg 88%
    21:00 +12°C° 0 mm 3 mps 753 mmHg 88%
    22:00 +12°C° 0 mm 3 mps 752 mmHg 88%
    23:00 +12°C° 0 mm 3 mps 752 mmHg 87%

    Day after tomorrow, 18 July, Thursday

    Time Temperature Precipitation Wind Pressure Humidity
    00:00 +12°C° 0.1 mm 3 mps 752 mmHg 87%
    01:00 +12°C° 0.1 mm 3 mps 752 mmHg 86%
    02:00 +12°C° 0.1 mm 3 mps 752 mmHg 86%
    03:00 +12°C° 0.1 mm 3 mps 752 mmHg 86%
    04:00 +13°C° 0.1 mm 3 mps 752 mmHg 87%
    05:00 +13°C° 0.1 mm 3 mps 751 mmHg 87%
    06:00 +13°C° 0.2 mm 3 mps 751 mmHg 87%
    07:00 +13°C° 0.2 mm 4 mps 751 mmHg 88%
    08:00 +13°C° 0.2 mm 4 mps 752 mmHg 88%
    09:00 +14°C° 0.4 mm 5 mps 752 mmHg 86%
    10:00 +15°C° 0.4 mm 5 mps 752 mmHg 84%
    11:00 +16°C° 0.4 mm 6 mps 752 mmHg 82%
    12:00 +16°C° 0.3 mm 6 mps 752 mmHg 78%
    13:00 +16°C° 0.3 mm 6 mps 752 mmHg 75%
    14:00 +17°C° 0.3 mm 7 mps 752 mmHg 71%
    15:00 +16°C° 0.1 mm 6 mps 752 mmHg 73%
    16:00 +16°C° 0.1 mm 6 mps 752 mmHg 75%
    17:00 +15°C° 0.1 mm 5 mps 753 mmHg 77%
    18:00 +14°C° 0 mm 4 mps 753 mmHg 82%
    19:00 +13°C° 0 mm 3 mps 753 mmHg 87%
    20:00 +13°C° 0 mm 2 mps 753 mmHg 93%
    21:00 +12°C° 0 mm 2 mps 753 mmHg 93%
    22:00 +12°C° 0 mm 1 mps 754 mmHg 93%
    23:00 +12°C° 0 mm 1 mps 754 mmHg 94%

    19 July, Friday

    Time Temperature Precipitation Wind Pressure Humidity
    00:00 +11°C° 0 mm 1 mps 753 mmHg 93%
    01:00 +11°C° 0 mm 1 mps 753 mmHg 93%
    02:00 +11°C° 0 mm 1 mps 753 mmHg 93%
    03:00 +12°C° 0 mm 1 mps 753 mmHg 92%
    04:00 +12°C° 0 mm 1 mps 753 mmHg 91%
    05:00 +13°C° 0 mm 1 mps 753 mmHg 90%
    06:00 +14°C° 0 mm 1 mps 753 mmHg 86%
    07:00 +15°C° 0 mm 1 mps 753 mmHg 82%
    08:00 +16°C° 0 mm 2 mps 753 mmHg 78%
    09:00 +16°C° 0.2 mm 2 mps 753 mmHg 78%
    10:00 +17°C° 0.2 mm 3 mps 753 mmHg 78%
    11:00 +17°C° 0.2 mm 3 mps 753 mmHg 78%
    12:00 +17°C° 0.3 mm 3 mps 752 mmHg 79%
    13:00 +17°C° 0.3 mm 2 mps 752 mmHg 81%
    14:00 +17°C° 0.3 mm 2 mps 752 mmHg 82%
    15:00 +17°C° 0.1 mm 2 mps 752 mmHg 81%
    16:00 +18°C° 0.1 mm 1 mps 752 mmHg 80%
    17:00 +18°C° 0.1 mm 1 mps 752 mmHg 79%
    18:00 +16°C° 0.1 mm 1 mps 752 mmHg 83%
    19:00 +15°C° 0.1 mm 1 mps 752 mmHg 87%
    20:00 +14°C° 0.1 mm 1 mps 752 mmHg 91%
    21:00 +14°C° 0 mm 1 mps 752 mmHg 92%
    22:00 +14°C° 0 mm 1 mps 752 mmHg 92%
    23:00 +13°C° 0 mm 1 mps 752 mmHg 93%

    20 July, Saturday

    Time Temperature Precipitation Wind Pressure Humidity
    00:00 +13°C° 0 mm 1 mps 752 mmHg 93%
    01:00 +13°C° 0 mm 1 mps 752 mmHg 93%
    02:00 +13°C° 0 mm 1 mps 751 mmHg 94%
    03:00 +13°C° 0.3 mm 1 mps 751 mmHg 95%
    04:00 +13°C° 0.3 mm 1 mps 751 mmHg 95%
    05:00 +13°C° 0.3 mm 1 mps 751 mmHg 96%
    06:00 +14°C° 0 mm 2 mps 751 mmHg 94%
    07:00 +15°C° 0 mm 2 mps 751 mmHg 91%
    08:00 +16°C° 0 mm 3 mps 752 mmHg 88%
    09:00 +16°C° 0.1 mm 3 mps 752 mmHg 88%
    10:00 +16°C° 0.1 mm 3 mps 752 mmHg 88%
    11:00 +16°C° 0.1 mm 3 mps 752 mmHg 88%
    12:00 +17°C° 0.2 mm 3 mps 752 mmHg 86%
    13:00 +18°C° 0.2 mm 3 mps 752 mmHg 83%
    14:00 +19°C° 0.2 mm 3 mps 752 mmHg 81%
    15:00 +18°C° 0.6 mm 3 mps 752 mmHg 85%
    16:00 +18°C° 0.6 mm 3 mps 752 mmHg 89%
    17:00 +17°C° 0.6 mm 2 mps 752 mmHg 93%
    18:00 +16°C° 0.3 mm 2 mps 752 mmHg 94%
    19:00 +16°C° 0.3 mm 2 mps 753 mmHg 95%
    20:00 +15°C° 0.3 mm 2 mps 753 mmHg 96%
    21:00 +15°C° 0 mm 2 mps 753 mmHg 96%
    22:00 +15°C° 0 mm 2 mps 754 mmHg 96%
    23:00 +14°C° 0 mm 2 mps 754 mmHg 96%

    21 July, Sunday

    Time Temperature Precipitation Wind Pressure Humidity
    00:00 +14°C° 0 mm 2 mps 754 mmHg 96%
    01:00 +14°C° 0 mm 2 mps 754 mmHg 96%
    02:00 +14°C° 0 mm 2 mps 754 mmHg 96%
    03:00 +14°C° 0 mm 2 mps 754 mmHg 97%
    04:00 +14°C° 0 mm 2 mps 755 mmHg 97%
    05:00 +14°C° 0 mm 3 mps 755 mmHg 97%
    06:00 +16°C° 0 mm 3 mps 755 mmHg 94%
    07:00 +17°C° 0 mm 4 mps 755 mmHg 92%
    08:00 +17°C° 0 mm 5 mps 755 mmHg 90%
    09:00 +19°C° 0 mm 5 mps 755 mmHg 86%
    10:00 +20°C° 0 mm 5 mps 754 mmHg 82%
    11:00 +20°C° 0 mm 5 mps 754 mmHg 78%
    12:00 +21°C° 0.2 mm 6 mps 754 mmHg 76%
    13:00 +21°C° 0.2 mm 6 mps 754 mmHg 74%
    14:00 +22°C° 0.2 mm 6 mps 754 mmHg 72%
    15:00 +21°C° 0.7 mm 5 mps 753 mmHg 78%
    16:00 +20°C° 0.7 mm 5 mps 753 mmHg 84%
    17:00 +19°C° 0.7 mm 4 mps 753 mmHg 89%
    18:00 +19°C° 0.4 mm 4 mps 752 mmHg 91%
    19:00 +18°C° 0.4 mm 4 mps 752 mmHg 92%
    20:00 +18°C° 0.4 mm 3 mps 752 mmHg 94%
    21:00 +17°C° 0.2 mm 3 mps 752 mmHg 94%
    22:00 +17°C° 0.2 mm 3 mps 752 mmHg 94%
    23:00 +17°C° 0.2 mm 3 mps 751 mmHg 95%
    Show more